Regional Weather Roundup
Issued by NWS Little Rock, AR

Home | Current Version | Previous Version | Text Only | Print | Product List | Glossary Off
Versions: 1 2 3 4 5 6 7 8 9 10 11 12 13 14 15 16 17 18 19 20 21 22 23 24 25 26 27

000
ASUS44 KLZK 251905
RWRLZK

WEATHER ROUNDUP FOR ARKANSAS
NATIONAL WEATHER SERVICE LITTLE ROCK AR
200 PM CDT SAT OCT 25 2014

NOTE: "FAIR" INDICATES FEW OR NO CLOUDS BELOW 12,000 FEET WITH NO
SIGNIFICANT WEATHER AND/OR OBSTRUCTIONS TO VISIBILITY.

ARZ001-003-010-029-252000-
NORTHWEST ARKANSAS

CITY           SKY/WX    TMP DP  RH WIND       PRES   REMARKS
FAYETTEVILLE   SUNNY     80  64  58 SW3       30.08F
FORT SMITH     SUNNY     83  61  47 W8        30.05F
HARRISON       SUNNY     83  62  49 VRB6      30.07F
BENTONVILLE    SUNNY     79  63  57 SW3       30.09F
ROGERS         SUNNY     79  63  57 W5        30.09F
SILOAM SPGS    SUNNY     81  63  54 CALM      30.09F
HIGHFILL       SUNNY     80  64  58 S3        30.08F
SPRINGDALE     SUNNY     81  64  57 W9        30.10F
$$

ARZ004-005-016-252000-
NORTH CENTRAL ARKANSAS

CITY           SKY/WX    TMP DP  RH WIND       PRES   REMARKS
BATESVILLE     SUNNY     84  64  51 SW7       30.03F HX  86
FLIPPIN        SUNNY     84  61  45 S3        30.04F
MTN HOME       SUNNY     81  62  52 VRB6      30.04F
$$

ARZ040-041-252000-
WEST CENTRAL ARKANSAS

CITY           SKY/WX    TMP DP  RH WIND       PRES   REMARKS
MENA           SUNNY     82  63  51 CALM      30.10F
MOUNT IDA      SUNNY     83  63  50 VRB6      30.06F
$$

ARZ009-017-025-026-028-252000-
NORTHEAST ARKANSAS

CITY           SKY/WX    TMP DP  RH WIND       PRES   REMARKS
CORNING        LGT RAIN  81  64  57 CALM      30.02F
JONESBORO      SUNNY     80  63  55 W3        30.02F
NEWPORT        SUNNY     85  63  47 CALM      30.04F HX  86
WALNUT RIDGE   SUNNY     81  63  54 SW5       30.01F
BLYTHEVILLE    SUNNY     83  64  52 VRB3      30.02F
$$

ARZ022-023-033-042-044-252000-
CENTRAL ARKANSAS

CITY           SKY/WX    TMP DP  RH WIND       PRES   REMARKS
LITTLE ROCK    SUNNY     85  62  46 SW8       30.05F HX  85
N LITTLE ROCK  SUNNY     82  66  59 SW6       30.05F
JACKSONVILLE   SUNNY     84  64  51 W9        30.04F HX  86
SEARCY         SUNNY     83  65  54 VRB6      30.05F HX  85
HOT SPRINGS    SUNNY     83  63  50 W10G16    30.07F
RUSSELLVILLE   SUNNY     82  63  52 W5        30.05F
$$

ARZ036-252000-
EAST ARKANSAS

CITY           SKY/WX    TMP DP  RH WIND       PRES   REMARKS
WEST MEMPHIS   SUNNY     82  64  54 VRB3      30.02F
$$

ARZ050-053-066-070-073-252000-
SOUTHWEST ARKANSAS

CITY           SKY/WX    TMP DP  RH WIND       PRES   REMARKS
ARKADELPHIA    FAIR      82  67  60 W7        30.08F
CAMDEN         SUNNY     84  61  45 NE6       30.09F
TEXARKANA      SUNNY     82  63  52 SW8       30.10F
EL DORADO      SUNNY     81  61  50 SW8       30.10F
DE QUEEN       SUNNY     81  64  56 SW7       30.08F HAZE
$$

ARZ056-057-069-252000-
SOUTHEAST ARKANSAS

CITY           SKY/WX    TMP DP  RH WIND       PRES   REMARKS
PINE BLUFF     SUNNY     81  62  52 SW9       30.06F
STUTTGART      SUNNY     84  63  48 W10       30.06F HX  85
MONTICELLO     SUNNY     81  62  52 W6        30.08F

$$





USA.gov is the U.S. government's official web portal to all federal, state and local government web resources and services.